Location: Breitenfeld
(46.8500°N, 15.6333°E)
Time: 13:29:55
(UTC+00:00)

SPOT 3 Rocket - Pass Details

Date: 09 April 2020
Orbit: 779 x 795 km, 98.8° (Epoch: 02 June)

Event Time Altitude Azimuth Distance (km) Brightness Sun altitude
Exits shadow 19:22:44 - 180° (S) 2,455 5.8 -17.3°
Reaches altitude 10° 19:23:00 10° 180° (S) 2,354 5.7 -17.3°
Maximum altitude 19:28:06 56° 259° (W) 938 4.1 -18.0°
Drops below altitude 10° 19:33:14 10° 338° (NNW) 2,363 6.9 -18.7°
Sets 19:35:37 0° 342° (NNW) 3,294 7.6 -19.1°
